When you browse on this site, cookies collect data to enhance your experience and personalize the content and advertising you see.
Visit our Privacy Policy to learn more. By continuing to use the site, you agree to this use of cookies and data.
  • In Hungary
  • List of Countries
  • For 7 days
  • Water Temperature
  • Satellite Maps
  • Weather Map
  • News
  • Weather Widgets
  • user-avatar
    Login

    Hourly Weather Harwich

    Today, 21 March, Thursday

    Time Temperature Precipitation Wind Pressure Humidity
    00:00 +7°C° 0 mm 4 mps 774 mmHg 94%
    01:00 +7°C° 0 mm 4 mps 774 mmHg 94%
    02:00 +7°C° 0 mm 4 mps 774 mmHg 95%
    03:00 +6°C° 0 mm 4 mps 774 mmHg 95%
    04:00 +6°C° 0 mm 4 mps 774 mmHg 96%
    05:00 +6°C° 0 mm 4 mps 774 mmHg 96%
    06:00 +6°C° 0 mm 4 mps 774 mmHg 96%
    07:00 +7°C° 0 mm 4 mps 774 mmHg 92%
    08:00 +8°C° 0 mm 4 mps 774 mmHg 88%
    09:00 +11°C° 0 mm 3 mps 775 mmHg 84%
    10:00 +12°C° 0 mm 3 mps 775 mmHg 80%
    11:00 +14°C° 0 mm 2 mps 775 mmHg 75%
    12:00 +14°C° 0 mm 3 mps 775 mmHg 72%
    13:00 +15°C° 0 mm 2 mps 775 mmHg 71%
    14:00 +16°C° 0 mm 2 mps 774 mmHg 70%
    15:00 +16°C° 0 mm 2 mps 774 mmHg 69%
    16:00 +15°C° 0 mm 2 mps 774 mmHg 74%
    17:00 +14°C° 0 mm 2 mps 774 mmHg 79%
    18:00 +12°C° 0 mm 2 mps 774 mmHg 85%
    19:00 +11°C° 0 mm 3 mps 774 mmHg 87%
    20:00 +10°C° 0 mm 3 mps 774 mmHg 89%
    21:00 +10°C° 0 mm 3 mps 774 mmHg 91%
    22:00 +9°C° 0 mm 3 mps 773 mmHg 92%
    23:00 +9°C° 0 mm 3 mps 773 mmHg 93%

    Tomorrow, 22 March, Friday

    Time Temperature Precipitation Wind Pressure Humidity
    00:00 +9°C° 0 mm 3 mps 773 mmHg 94%
    01:00 +8°C° 0 mm 3 mps 773 mmHg 95%
    02:00 +8°C° 0 mm 3 mps 773 mmHg 95%
    03:00 +8°C° 0 mm 3 mps 772 mmHg 95%
    04:00 +7°C° 0 mm 4 mps 772 mmHg 94%
    05:00 +6°C° 0 mm 4 mps 772 mmHg 94%
    06:00 +6°C° 0 mm 4 mps 772 mmHg 94%
    07:00 +7°C° 0 mm 4 mps 772 mmHg 89%
    08:00 +10°C° 0 mm 4 mps 772 mmHg 85%
    09:00 +11°C° 0 mm 4 mps 771 mmHg 80%
    10:00 +12°C° 0 mm 4 mps 771 mmHg 77%
    11:00 +13°C° 0 mm 4 mps 771 mmHg 74%
    12:00 +14°C° 0 mm 4 mps 771 mmHg 71%
    13:00 +15°C° 0 mm 5 mps 770 mmHg 71%
    14:00 +15°C° 0 mm 5 mps 770 mmHg 70%
    15:00 +15°C° 0 mm 5 mps 770 mmHg 70%
    16:00 +15°C° 0 mm 4 mps 770 mmHg 73%
    17:00 +14°C° 0 mm 4 mps 770 mmHg 76%
    18:00 +13°C° 0 mm 4 mps 770 mmHg 79%
    19:00 +12°C° 0 mm 3 mps 770 mmHg 79%
    20:00 +12°C° 0 mm 3 mps 770 mmHg 79%
    21:00 +11°C° 0 mm 3 mps 770 mmHg 80%
    22:00 +11°C° 0 mm 3 mps 770 mmHg 83%
    23:00 +10°C° 0 mm 3 mps 770 mmHg 87%

    Day after tomorrow, 23 March, Saturday

    Time Temperature Precipitation Wind Pressure Humidity
    00:00 +9°C° 0 mm 3 mps 770 mmHg 91%
    01:00 +9°C° 0 mm 3 mps 771 mmHg 92%
    02:00 +8°C° 0 mm 3 mps 771 mmHg 93%
    03:00 +8°C° 0 mm 3 mps 771 mmHg 94%
    04:00 +7°C° 0 mm 4 mps 771 mmHg 92%
    05:00 +7°C° 0 mm 4 mps 772 mmHg 90%
    06:00 +8°C° 0 mm 4 mps 772 mmHg 88%
    07:00 +8°C° 0 mm 5 mps 773 mmHg 80%
    08:00 +8°C° 0 mm 5 mps 773 mmHg 73%
    09:00 +8°C° 0 mm 6 mps 773 mmHg 66%
    10:00 +8°C° 0 mm 6 mps 774 mmHg 64%
    11:00 +9°C° 0 mm 5 mps 774 mmHg 63%
    12:00 +9°C° 0 mm 5 mps 774 mmHg 61%
    13:00 +9°C° 0 mm 5 mps 774 mmHg 62%
    14:00 +9°C° 0 mm 5 mps 774 mmHg 63%
    15:00 +9°C° 0 mm 6 mps 774 mmHg 63%
    16:00 +8°C° 0 mm 5 mps 774 mmHg 66%
    17:00 +7°C° 0 mm 5 mps 774 mmHg 68%
    18:00 +6°C° 0 mm 5 mps 774 mmHg 70%
    19:00 +6°C° 0 mm 5 mps 775 mmHg 73%
    20:00 +5°C° 0 mm 5 mps 775 mmHg 75%
    21:00 +5°C° 0 mm 4 mps 775 mmHg 78%
    22:00 +5°C° 0 mm 4 mps 775 mmHg 78%
    23:00 +5°C° 0 mm 4 mps 775 mmHg 77%

    24 March, Sunday

    Time Temperature Precipitation Wind Pressure Humidity
    00:00 +5°C° 0 mm 4 mps 775 mmHg 76%
    01:00 +5°C° 0 mm 4 mps 775 mmHg 76%
    02:00 +5°C° 0 mm 4 mps 775 mmHg 76%
    03:00 +5°C° 0 mm 4 mps 775 mmHg 75%
    04:00 +4°C° 0 mm 4 mps 775 mmHg 76%
    05:00 +4°C° 0 mm 4 mps 775 mmHg 76%
    06:00 +4°C° 0 mm 4 mps 775 mmHg 76%
    07:00 +5°C° 0 mm 4 mps 775 mmHg 71%
    08:00 +6°C° 0 mm 4 mps 775 mmHg 66%
    09:00 +8°C° 0 mm 3 mps 776 mmHg 62%
    10:00 +9°C° 0 mm 3 mps 776 mmHg 58%
    11:00 +10°C° 0 mm 3 mps 776 mmHg 54%
    12:00 +10°C° 0 mm 3 mps 776 mmHg 50%
    13:00 +11°C° 0 mm 3 mps 776 mmHg 51%
    14:00 +11°C° 0 mm 3 mps 776 mmHg 51%
    15:00 +11°C° 0 mm 3 mps 776 mmHg 52%
    16:00 +10°C° 0 mm 3 mps 776 mmHg 57%
    17:00 +9°C° 0 mm 2 mps 776 mmHg 61%
    18:00 +8°C° 0 mm 2 mps 776 mmHg 66%
    19:00 +7°C° 0 mm 2 mps 776 mmHg 69%
    20:00 +7°C° 0 mm 1 mps 777 mmHg 72%
    21:00 +6°C° 0 mm 1 mps 777 mmHg 75%
    22:00 +6°C° 0 mm 1 mps 777 mmHg 76%
    23:00 +5°C° 0 mm 2 mps 777 mmHg 77%

    25 March, Monday

    Time Temperature Precipitation Wind Pressure Humidity
    00:00 +5°C° 0 mm 2 mps 777 mmHg 78%
    01:00 +3°C° 0 mm 3 mps 777 mmHg 80%
    02:00 +3°C° 0 mm 3 mps 777 mmHg 82%
    03:00 +3°C° 0 mm 4 mps 777 mmHg 83%
    04:00 +1°C° 0 mm 4 mps 777 mmHg 85%
    05:00 +1°C° 0 mm 4 mps 777 mmHg 87%
    06:00 +1°C° 0 mm 4 mps 777 mmHg 88%
    07:00 +4°C° 0 mm 4 mps 777 mmHg 83%
    08:00 +5°C° 0 mm 4 mps 777 mmHg 78%
    09:00 +7°C° 0 mm 4 mps 777 mmHg 73%
    10:00 +8°C° 0 mm 4 mps 777 mmHg 67%
    11:00 +10°C° 0 mm 3 mps 777 mmHg 62%
    12:00 +12°C° 0 mm 3 mps 777 mmHg 56%
    13:00 +12°C° 0 mm 3 mps 777 mmHg 57%
    14:00 +12°C° 0 mm 3 mps 777 mmHg 58%
    15:00 +12°C° 0 mm 3 mps 777 mmHg 59%
    16:00 +11°C° 0 mm 3 mps 777 mmHg 64%
    17:00 +9°C° 0 mm 3 mps 777 mmHg 70%
    18:00 +8°C° 0 mm 3 mps 777 mmHg 76%
    19:00 +7°C° 0 mm 3 mps 777 mmHg 79%
    20:00 +5°C° 0 mm 3 mps 778 mmHg 82%
    21:00 +4°C° 0 mm 3 mps 778 mmHg 86%
    22:00 +4°C° 0 mm 3 mps 778 mmHg 87%
    23:00 +5°C° 0 mm 2 mps 778 mmHg 88%

    26 March, Tuesday

    Time Temperature Precipitation Wind Pressure Humidity
    00:00 +5°C° 0 mm 2 mps 779 mmHg 90%
    01:00 +4°C° 0 mm 2 mps 778 mmHg 90%
    02:00 +4°C° 0 mm 2 mps 778 mmHg 90%
    03:00 +4°C° 0 mm 2 mps 778 mmHg 90%
    04:00 +4°C° 0 mm 2 mps 778 mmHg 89%
    05:00 +4°C° 0 mm 2 mps 778 mmHg 89%
    06:00 +4°C° 0 mm 2 mps 779 mmHg 88%
    07:00 +5°C° 0 mm 2 mps 779 mmHg 82%
    08:00 +7°C° 0 mm 2 mps 779 mmHg 75%
    09:00 +9°C° 0 mm 2 mps 779 mmHg 68%
    10:00 +10°C° 0 mm 2 mps 779 mmHg 64%
    11:00 +12°C° 0 mm 2 mps 779 mmHg 61%
    12:00 +13°C° 0 mm 1 mps 779 mmHg 57%
    13:00 +13°C° 0 mm 1 mps 778 mmHg 57%
    14:00 +13°C° 0 mm 2 mps 778 mmHg 58%
    15:00 +13°C° 0 mm 2 mps 777 mmHg 59%
    16:00 +12°C° 0 mm 2 mps 777 mmHg 66%
    17:00 +10°C° 0 mm 2 mps 777 mmHg 73%
    18:00 +8°C° 0 mm 2 mps 777 mmHg 79%
    19:00 +8°C° 0 mm 2 mps 777 mmHg 81%
    20:00 +7°C° 0 mm 2 mps 778 mmHg 83%
    21:00 +6°C° 0 mm 2 mps 778 mmHg 85%
    22:00 +7°C° 0 mm 1 mps 778 mmHg 85%
    23:00 +7°C° 0 mm 1 mps 778 mmHg 84%
    Show more